Theta_e
311 310 311 312 313 314 315 315 316 316 316 317 317 318 319 320 320 308 298 306 314 322 323 310 305 303 301 299 300 295 288 284 285 287 289 292 292 295 297 293 296 297 295 297 299
312 312 311 311 311 312 313 315 316 316 316 316 317 317 318 320 311 302 312 318 320 323 306 302 301 302 297 296 296 291 286 287 291 291 290 293 292 293 293 292 293 294 296 299 297
314 313 313 312 312 312 312 313 315 315 316 316 316 317 318 317 303 302 317 319 323 321 308 305 304 301 295 295 294 291 288 291 294 295 295 294 293 295 292 291 293 294 295 296 295
316 314 313 312 313 313 312 313 314 315 315 315 316 317 319 310 293 305 319 321 323 314 307 302 301 296 293 292 294 289 293 294 297 297 296 293 294 293 294 293 297 297 296 295 294
318 317 315 313 313 313 313 313 314 314 315 315 316 317 311 299 299 307 317 315 310 307 303 301 297 296 292 293 293 290 292 296 296 296 295 296 294 293 293 296 297 296 297 294 294
318 317 317 315 314 314 314 314 314 314 315 315 316 316 305 292 307 307 307 309 308 306 303 303 299 300 295 294 293 293 294 295 296 295 296 294 292 293 292 295 295 296 294 294 294
319 318 317 316 315 314 314 314 314 315 315 315 315 310 300 295 305 305 307 306 307 306 302 304 304 299 297 293 297 295 291 293 294 295 294 293 289 291 293 294 294 294 293 293 294
319 318 317 317 316 315 315 315 315 315 314 314 314 304 293 306 304 305 306 305 308 309 306 305 304 301 298 297 294 290 289 284 291 294 294 290 285 288 292 292 292 293 293 292 293
319 318 318 317 316 315 315 315 315 315 314 313 303 297 291 308 301 304 304 303 305 306 305 307 302 296 296 290 285 287 281 284 288 294 292 290 286 289 293 292 292 292 292 292 292
319 318 318 317 317 316 316 315 312 311 309 308 305 292 296 295 301 303 304 304 302 302 300 299 294 290 289 286 280 282 282 285 284 288 290 288 288 292 293 292 291 291 291 291 292
319 318 318 318 316 315 309 302 295 295 299 292 292 292 297 301 303 301 303 302 301 297 291 293 287 282 287 290 289 287 285 283 286 290 287 287 288 290 292 291 290 290 291 290 290
313 317 318 318 316 313 306 298 295 293 285 295 296 298 301 300 294 299 303 295 294 288 292 289 286 289 291 291 289 286 283 282 286 288 287 285 286 290 290 289 291 291 290 291 290
311 312 316 317 315 307 302 301 304 300 285 289 294 295 297 300 294 295 299 295 290 289 289 286 288 293 291 288 287 285 283 281 283 286 286 284 283 283 288 290 291 290 292 292 290
308 309 312 313 307 304 299 303 304 302 288 289 289 293 297 297 290 300 299 294 290 288 289 288 290 290 287 287 287 282 288 286 285 282 277 283 276 280 284 287 289 291 290 290 289
306 308 311 316 305 300 302 304 303 301 283 290 288 298 296 289 293 294 298 295 288 288 288 286 287 286 286 286 288 284 288 286 285 282 281 279 275 281 283 284 286 289 290 289 288
304 306 309 305 303 301 302 301 302 288 282 285 290 290 289 291 292 294 294 295 294 288 287 286 290 289 287 288 288 289 287 286 284 281 276 275 276 280 278 283 284 288 290 290 287
303 304 305 308 302 302 302 301 285 283 290 284 284 288 287 287 289 290 289 287 285 280 281 285 286 288 290 286 288 286 281 275 275 274 276 280 278 283 285 288 287 287 290 289 287
302 303 305 308 302 302 303 289 281 287 287 288 288 287 284 288 288 288 286 283 287 285 282 280 278 286 289 286 284 283 281 277 273 274 276 280 277 283 286 288 289 289 290 287 286
302 301 304 302 302 302 295 284 286 288 291 287 286 282 282 286 287 286 284 283 286 287 282 280 281 287 288 288 286 283 280 282 278 272 274 277 280 284 284 286 287 287 286 285 285
294 296 300 302 303 300 290 287 287 294 292 289 285 285 280 282 284 284 284 288 288 290 289 286 280 285 287 288 287 284 285 278 277 270 271 276 278 280 282 285 286 286 285 285 285
293 290 298 303 302 293 284 286 289 294 293 290 288 284 284 282 283 282 283 287 290 288 290 288 285 282 286 283 283 282 281 281 280 278 276 273 280 283 284 285 286 286 287 285 284
290 283 298 302 287 285 284 288 293 294 294 293 290 290 286 284 282 282 283 285 290 289 286 289 285 279 282 284 285 283 283 282 278 276 277 278 279 286 284 286 286 287 288 286 285
284 285 295 296 282 282 285 286 288 291 291 291 290 291 290 285 282 284 285 288 289 289 287 288 278 275 281 282 282 282 283 283 281 280 277 275 280 286 285 285 287 286 287 287 285
283 278 285 287 285 284 284 285 286 291 291 293 293 291 289 285 286 283 284 287 289 289 294 291 281 281 281 281 281 280 281 282 282 276 278 278 281 285 284 285 286 286 287 287 286
284 277 283 280 283 283 285 285 285 286 288 292 290 291 290 284 284 284 285 285 288 292 288 288 279 280 281 281 281 281 281 281 280 283 280 283 283 289 289 287 287 288 288 287 285
280 280 281 278 282 279 284 282 284 287 287 286 286 291 293 289 287 284 285 285 286 287 286 287 277 278 276 280 281 278 281 281 282 283 282 283 283 291 288 286 286 287 287 287 287
284 286 282 276 277 275 278 280 283 285 290 290 290 290 290 294 295 294 292 291 290 287 285 284 278 280 282 278 275 277 278 281 282 283 285 281 288 288 287 288 289 289 287 289 289
Wind_Speed
6 6 7 9 10 11 12 11 12 12 13 14 15 14 14 15 12 3 2 3 4 11 9 5 2 2 2 4 3 3 5 2 4 5 3 1 2 1 1 3 0 1 4 4 2
6 7 7 8 8 10 10 12 13 14 14 14 14 14 14 15 4 1 3 6 8 7 2 2 1 3 4 2 3 5 3 6 1 2 2 1 3 3 1 2 3 1 0 3 3
7 7 8 8 9 10 11 11 12 13 15 15 15 15 14 7 0 4 2 7 8 3 3 2 1 2 3 2 1 3 4 2 2 2 1 2 2 2 3 6 7 8 6 3 2
9 8 8 8 9 10 11 11 12 13 14 15 15 15 14 1 3 1 4 6 6 5 2 1 1 3 3 3 1 0 2 2 1 2 1 3 2 4 8 6 4 7 4 5 4
10 10 9 9 9 10 10 11 13 14 14 15 15 14 3 1 4 2 5 5 1 2 3 2 2 2 4 3 2 1 1 2 2 3 4 2 6 6 8 8 6 5 5 6 5
11 10 10 10 10 11 11 12 13 14 14 15 13 11 1 3 2 2 4 1 3 3 2 4 3 2 4 2 3 1 2 3 4 3 4 3 4 2 4 6 7 6 7 7 7
12 12 10 10 11 11 12 13 14 14 15 14 9 2 1 2 2 4 4 2 3 2 3 3 2 4 2 2 1 1 4 5 5 3 4 1 7 11 4 4 8 8 6 7 7
12 12 11 10 10 12 13 14 15 15 14 9 7 1 4 1 1 2 3 2 4 4 4 2 3 5 4 1 5 1 2 3 2 6 1 2 10 4 5 9 9 8 6 7 6
13 12 11 11 10 10 12 15 16 15 9 7 2 3 5 3 1 1 2 2 2 3 4 1 4 4 4 5 4 3 4 4 6 7 2 4 9 4 5 7 9 8 8 7 7
13 14 12 11 9 8 11 16 10 6 1 1 1 3 2 1 1 2 3 3 5 3 4 5 5 3 3 4 5 4 4 5 5 2 4 6 19 16 7 10 13 9 8 7 7
13 13 13 11 7 5 5 5 4 2 1 6 3 2 3 0 2 2 1 3 2 5 4 2 3 6 9 7 1 2 3 4 4 0 3 7 16 20 10 9 13 10 8 8 8
16 10 13 11 7 2 2 2 3 1 7 5 2 1 2 4 3 2 2 4 2 4 4 4 7 4 3 4 4 3 1 5 5 2 1 6 22 19 5 7 11 11 9 9 5
18 16 11 11 8 3 3 4 3 2 3 4 4 4 4 6 3 6 8 3 3 5 7 6 2 5 4 3 4 2 4 3 4 6 1 8 10 5 2 3 2 4 5 6 9
18 19 21 16 3 4 3 2 4 0 3 6 4 4 3 6 3 2 5 4 2 8 7 5 2 5 3 4 5 3 3 3 2 5 4 5 8 8 4 7 2 4 6 7 7
19 20 15 17 6 5 2 3 4 0 4 3 3 1 3 4 5 1 0 3 5 5 6 5 6 4 3 4 5 4 3 2 3 2 3 4 4 11 4 5 3 5 6 7 7
17 19 21 3 2 1 6 3 2 3 12 4 4 5 5 2 2 3 3 2 2 3 0 2 0 4 4 3 1 6 5 5 4 2 2 3 5 9 3 4 1 2 7 8 7
17 17 12 2 2 5 5 2 4 7 2 4 5 6 3 5 4 4 6 6 7 6 6 1 3 1 4 5 4 2 5 3 5 3 6 3 2 14 5 5 4 4 9 8 7
19 18 6 1 7 9 5 4 7 5 5 3 4 5 6 7 4 6 7 5 6 3 4 7 4 8 5 4 6 5 5 6 6 2 4 3 8 8 5 3 6 2 5 7 7
18 2 3 4 11 5 3 5 9 8 5 9 3 4 4 4 5 4 7 6 9 13 8 6 2 2 2 2 3 5 4 2 6 2 3 4 9 8 4 2 1 4 5 8 8
4 3 3 9 12 7 4 9 5 4 9 3 8 6 8 7 7 7 9 7 6 13 4 5 4 1 2 3 3 3 4 3 3 3 4 5 6 8 3 7 6 6 9 8 7
1 3 1 6 5 3 5 7 6 6 3 8 7 4 5 9 8 7 7 4 6 7 10 4 5 0 2 7 8 4 3 1 2 4 5 2 8 7 6 6 10 9 10 9 9
2 4 2 3 4 3 4 6 2 5 2 2 2 3 8 9 8 7 10 5 7 9 12 5 5 4 5 0 2 3 6 6 5 5 3 1 10 3 5 4 6 8 9 8 7
3 3 3 0 3 3 2 3 2 5 7 7 5 6 4 8 4 8 7 2 2 7 13 10 2 3 3 2 3 5 6 4 3 3 7 7 8 2 4 6 5 8 9 8 9
2 3 2 1 1 3 2 3 6 2 3 3 5 4 1 3 5 5 6 3 2 3 3 6 4 7 9 4 6 6 6 7 6 4 4 9 9 7 5 7 5 6 6 9 9
1 3 3 3 2 3 3 2 4 6 3 2 3 14 12 7 4 6 3 2 2 1 2 4 6 5 4 4 4 4 5 10 13 15 10 6 16 21 12 9 9 8 6 8 10
1 1 2 3 7 8 5 2 4 3 5 4 7 11 15 15 10 9 8 6 8 3 6 3 3 4 3 3 6 5 8 10 17 15 14 13 29 13 8 4 5 8 9 10 12
2 1 1 4 2 3 4 7 7 12 4 5 4 10 12 17 9 2 1 4 7 9 7 7 7 4 4 3 2 10 16 21 11 9 15 14 31 3 4 8 10 8 10 12 13
Wind_Direction
297 307 314 326 332 335 337 342 343 343 342 340 339 339 336 341 331 52 246 250 297 312 322 271 264 359 63 76 47 112 63 256 260 145 253 117 150 252 303 149 220 48 131 171 83
275 288 304 311 316 320 325 331 336 337 339 339 337 335 338 344 4 4 235 272 291 309 335 23 55 13 54 78 32 86 120 228 217 184 236 202 191 203 217 205 231 121 246 118 88
271 269 284 296 310 318 320 326 331 334 335 338 336 334 333 333 351 222 285 300 290 258 220 240 193 85 88 110 100 126 200 227 241 218 205 220 259 227 191 248 213 199 197 160 98
266 270 274 286 294 308 317 322 328 329 329 330 330 327 324 139 199 303 297 297 295 194 224 116 57 94 113 109 93 120 234 214 252 242 251 229 303 270 202 230 195 188 155 148 175
252 258 267 276 287 299 309 318 321 324 327 327 326 326 345 189 246 265 315 322 300 174 68 106 93 106 107 114 79 158 249 236 251 256 252 273 250 245 251 237 185 178 176 176 197
253 252 258 266 279 288 300 307 314 319 322 325 323 323 209 230 154 325 333 359 34 54 46 35 88 93 94 89 134 319 276 287 253 255 260 252 265 37 276 175 197 191 199 200 209
246 249 254 259 275 285 295 303 308 313 318 323 331 328 253 215 338 339 21 18 9 51 90 44 63 71 85 56 19 61 321 306 242 220 249 76 274 234 211 158 201 216 215 214 228
241 242 247 252 264 282 294 303 305 308 313 314 332 325 241 345 302 18 6 25 23 41 76 85 53 97 68 79 24 354 45 322 195 173 234 104 273 254 175 163 215 227 228 225 239
234 244 242 248 257 274 292 301 300 301 296 304 8 68 280 327 56 39 50 69 34 34 38 48 66 84 53 90 7 11 244 227 307 201 141 183 273 244 161 191 227 228 231 225 240
233 233 239 243 251 278 298 302 296 302 331 259 312 30 352 294 94 59 35 65 72 48 43 52 50 77 53 111 223 210 229 249 251 221 221 248 259 264 228 205 227 227 227 226 225
265 233 233 233 232 274 341 352 4 331 332 208 182 148 143 49 41 36 61 87 73 56 140 50 83 215 217 204 175 153 220 254 271 162 260 243 277 275 252 225 230 222 217 218 220
355 311 229 213 215 163 64 283 272 168 309 215 257 206 137 174 110 208 114 132 135 171 112 50 234 210 202 182 218 228 217 270 280 300 253 322 287 286 259 240 233 217 209 204 175
358 352 297 192 148 115 195 232 142 181 243 275 182 167 185 138 204 200 145 152 160 163 188 173 216 133 140 155 171 227 192 228 243 317 240 313 292 334 294 296 287 200 176 155 183
356 347 335 127 127 152 223 185 153 187 359 242 210 237 129 141 245 125 186 144 199 199 164 233 238 161 165 199 152 247 184 150 56 31 272 10 281 304 300 305 274 168 152 159 160
348 345 331 154 139 157 129 117 131 72 259 113 164 141 137 162 126 292 53 86 179 186 125 236 166 160 170 204 173 227 124 93 83 73 338 354 69 270 347 322 248 190 179 176 182
340 339 330 60 58 106 122 160 76 74 239 162 126 164 127 143 131 123 120 51 125 138 170 250 229 169 191 71 55 144 77 43 51 59 350 243 115 285 240 217 301 189 192 183 184
339 328 316 275 203 163 115 117 113 218 24 202 182 166 156 154 166 165 162 170 160 128 208 112 208 182 141 95 23 90 88 334 347 10 226 147 89 246 259 239 221 208 204 184 176
330 316 270 220 136 151 143 87 201 202 201 137 112 119 177 154 196 175 143 188 233 158 132 164 253 176 179 175 174 181 170 165 207 212 283 89 237 252 200 268 236 254 180 153 167
329 307 240 169 153 205 144 193 203 193 158 143 97 132 239 207 141 144 195 208 197 181 180 155 217 100 80 122 135 186 200 167 105 39 40 232 282 294 227 228 115 147 159 179 181
309 270 251 158 163 168 226 214 246 238 126 172 179 163 173 186 159 187 183 207 204 181 157 204 104 328 143 127 65 155 166 86 349 135 258 280 274 246 264 218 216 196 206 200 191
263 256 27 155 154 197 223 210 199 249 160 155 194 156 198 176 170 191 201 269 203 178 169 153 120 293 150 203 172 141 209 129 132 160 178 280 265 210 221 197 208 213 210 200 192
326 242 24 195 178 188 197 189 223 200 81 132 66 197 182 177 169 199 210 244 184 147 166 171 117 163 215 123 139 169 195 172 142 217 244 209 274 176 215 218 210 225 207 197 189
331 297 324 92 220 205 244 233 233 201 173 174 175 228 163 186 180 198 189 35 230 165 158 176 228 83 18 10 355 202 194 174 115 89 207 149 259 5 287 290 258 231 203 188 185
316 294 290 46 70 326 174 226 209 171 260 213 180 135 73 260 261 189 216 186 342 198 123 106 147 166 188 170 132 186 188 180 159 149 185 230 304 270 271 254 258 249 209 187 192
246 268 331 326 15 259 321 331 215 212 243 237 265 207 189 211 201 211 156 123 22 117 75 148 185 158 202 139 151 181 170 186 204 213 195 230 225 251 241 233 232 216 185 186 197
258 286 328 311 325 2 184 217 331 300 180 215 224 214 208 196 197 195 158 201 180 175 168 172 177 107 315 196 216 235 205 197 223 237 254 270 277 258 243 249 261 224 198 207 208
226 250 258 320 347 37 346 7 14 348 226 271 302 243 213 226 210 360 218 144 149 147 160 150 134 119 231 47 45 285 205 208 203 204 210 221 242 274 227 233 245 257 210 214 214